Weather History for KSUX - August, 2011

Change the Weather History Date:

Wednesday, August 17, 2011

  Actual Average Record
Temperature  
Mean Temperature 76 °F 72 °F  
Max Temperature 86 °F 83 °F 104 °F (1936)
Min Temperature 65 °F 61 °F 43 °F (2012)
Degree Days  
Heating Degree Days 0 0  
Month to date heating degree days 0 0  
Since 1 June heating degree days 13 30  
Since 1 July heating degree days 0 3  
Cooling Degree Days 11 8  
Month to date cooling degree days 174 143  
Year to date cooling degree days 917 688  
Since 1 June cooling degree days 851 624  
Growing Degree Days 25 (Base 50)    
Moisture  
Dew Point 59 °F    
Average Humidity 61    
Maximum Humidity 93    
Minimum Humidity 29    
Precipitation  
Precipitation 0.00 in 0.11 in 1.95 in (1912)
Month to date precipitation 0.89 1.76  
Year to date precipitation 21.12 19.07  
Snow  
Snow 0.00 in 0.00 in 0.00 in ()
Month to date snowfall 0.0 0.0  
Since 1 June snowfall 0.0 0.0  
Since 1 July snowfall 0.0 0.0  
Snow Depth 0.00 in    
Sea Level Pressure  
Sea Level Pressure 30.07 in    
Wind  
Wind Speed 5 mph (NNE)    
Max Wind Speed 10 mph    
Max Gust Speed 15 mph    
Visibility 9 miles    
Events      
T = Trace of Precipitation, MM = Missing Value Source: NWS Daily Summary

Daily Weather History Graph

Daily Weather History Graph

Search for Another Location

Airport or City:

Trip Planner

Search our weather history database for the weather conditions in past years. The results will help you decide how hot, cold, wet, or windy it might be!

Date:

Astronomy

Aug. 17, 2011 Rise Set
Actual Time 6:34 AM CDT 8:23 PM CDT
Civil Twilight 6:04 AM CDT 8:54 PM CDT
Nautical Twilight 5:27 AM CDT 9:30 PM CDT
Astronomical Twilight 4:47 AM CDT 10:10 PM CDT
Moon 9:48 PM CDT (8/17) 10:30 AM CDT (8/17)
Length of Visible Light 14h 49m
Length of Day
13h 49m
Waning Gibbous, 86% of the Moon is Illuminated
Aug 17
Waning Gibbous
Aug 21
Last Quarter
Aug 28
New
Sep 4
First Quarter
Sep 12
Full

Hourly Weather History & Observations

Time (CDT) Temp. Heat Index Dew Point Humidity Pressure Visibility Wind Dir Wind Speed Gust Speed Precip Events Conditions
12:05 AM 66.2 °F - 64.4 °F 94% 30.04 in 5.0 mi WNW 5.8 mph - N/A   Clear
12:52 AM 68.0 °F - 66.9 °F 96% 30.02 in 5.0 mi NW 5.8 mph - N/A   Clear
1:52 AM 69.8 °F - 66.2 °F 88% 30.05 in 5.0 mi NNW 5.8 mph - N/A   Partly Cloudy
2:52 AM 68.0 °F - 66.0 °F 93% 30.04 in 6.0 mi NNW 5.8 mph - N/A   Clear
3:52 AM 69.1 °F - 66.9 °F 93% 30.06 in 6.0 mi NNW 4.6 mph - N/A   Clear
4:52 AM 66.2 °F - 64.4 °F 94% 30.09 in 5.0 mi NNW 5.8 mph - N/A   Clear
5:52 AM 66.9 °F - 62.1 °F 84% 30.09 in 10.0 mi NNE 10.4 mph - N/A   Clear
6:52 AM 66.0 °F - 57.0 °F 73% 30.10 in 10.0 mi NNE 9.2 mph - N/A   Clear
7:52 AM 68.0 °F - 55.9 °F 65% 30.11 in 10.0 mi Variable 3.5 mph - N/A   Clear
8:52 AM 71.1 °F - 55.9 °F 59% 30.12 in 10.0 mi ENE 6.9 mph - N/A   Clear
9:52 AM 73.9 °F - 57.0 °F 55% 30.12 in 10.0 mi NNE 8.1 mph - N/A   Clear
10:52 AM 75.9 °F - 55.9 °F 50% 30.14 in 10.0 mi East 4.6 mph - N/A   Clear
11:52 AM 79.0 °F - 57.0 °F 47% 30.13 in 10.0 mi Calm Calm - N/A   Clear
12:52 PM 81.0 °F 80.8 °F 55.9 °F 42% 30.11 in 10.0 mi Calm Calm - N/A   Clear
1:52 PM 82.0 °F 81.7 °F 57.0 °F 42% 30.10 in 10.0 mi Variable 4.6 mph - N/A   Clear
2:52 PM 82.9 °F 81.9 °F 54.0 °F 37% 30.09 in 10.0 mi Variable 4.6 mph - N/A   Clear
3:52 PM 84.9 °F - 52.0 °F 32% 30.06 in 10.0 mi West 3.5 mph - N/A   Clear
4:52 PM 84.0 °F - 48.9 °F 29% 30.06 in 10.0 mi Calm Calm - N/A   Clear
5:52 PM 84.9 °F 83.3 °F 54.0 °F 34% 30.03 in 10.0 mi Calm Calm - N/A   Clear
6:52 PM 82.0 °F 81.4 °F 55.0 °F 39% 30.02 in 10.0 mi South 5.8 mph - N/A   Clear
7:52 PM 73.9 °F - 63.0 °F 68% 30.01 in 10.0 mi South 3.5 mph - N/A   Partly Cloudy
8:52 PM 70.0 °F - 62.1 °F 76% 30.03 in 8.0 mi SSE 4.6 mph - N/A   Clear
9:52 PM 70.0 °F - 61.0 °F 73% 30.02 in 10.0 mi East 4.6 mph - N/A   Clear
10:52 PM 69.1 °F - 59.0 °F 70% 30.02 in 10.0 mi East 4.6 mph - N/A   Clear
11:52 PM 66.9 °F - 60.1 °F 79% 30.00 in 10.0 mi SE 6.9 mph - N/A   Clear